Weather observations for the past three days for
Daytona Beach International Airport
Imperial (Metric)
Date Time (edt) Wind (mph) Vis. (mi.) Weather Sky Cond. Temperature (ºF) Relative Humidity Wind Chill (°F) Heat Index (°F) Pressure Precipitation (in)
Air Dwpt 6 hour altimeter (in) sea level (mb) 1 hr 3 hr 6 hr
Max. Min.
16 10:53 W 3 10.00 Mostly Cloudy BKN034 BKN150 88 78.1 73% 102 30.09 1018.7
16 09:53 SW 6 10.00 A Few Clouds FEW028 FEW150 86 78.1 77% 98 30.09 1018.9
16 08:53 SW 5 10.00 A Few Clouds FEW028 FEW150 82.9 78.1 85% 93 30.08 1018.6
16 07:53 Calm 9.00 Partly Cloudy FEW026 SCT150 79 78.1 79 75 97% 83 30.08 1018.4
16 06:53 Calm 8.00 Partly Cloudy FEW026 SCT150 75.9 75.9 100% 75 30.06 1017.7
16 05:53 Calm 8.00 A Few Clouds FEW026 FEW150 75 75 100% 72 30.03 1016.9
16 04:53 Calm 9.00 A Few Clouds FEW150 75 75 100% 72 30.02 1016.5
16 03:53 Calm 9.00 A Few Clouds FEW150 75 75 100% 72 30.03 1016.8
16 02:53 W 3 10.00 A Few Clouds FEW150 75 75 100% 72 30.05 1017.5
16 01:53 Calm 8.00 A Few Clouds FEW150 75.9 75.9 79 75 100% 75 30.05 1017.6 0.04
16 00:53 Calm 9.00 Mostly Cloudy BKN150 77 75.9 96% 78 30.06 1017.9
15 23:53 S 5 10.00 Mostly Cloudy BKN150 77 75.9 96% 78 30.07 1018.0
15 22:53 SW 5 9.00 Mostly Cloudy FEW120 BKN150 77 75.9 96% 78 30.05 1017.6 0.04
15 21:53 Calm 10.00 Light Rain FEW055 SCT120 BKN150 75.9 75.9 100% 75 30.05 1017.4 0.02
15 20:53 SW 7 7.00 Light Rain FEW055 BKN120 BKN150 75.9 75 97% 75 30.06 1017.7 0.02
15 19:53 W 7 10.00 Mostly Cloudy FEW029 FEW055 BKN150 79 72 91.9 79 79% 82 30.06 1018.0
15 18:53 NW 9 10.00 Mostly Cloudy SCT029 BKN037 BKN060 BKN200 82 73 74% 87 30.06 1017.8
15 17:53 S 8 10.00 Mostly Cloudy FEW038 SCT130 BKN200 87.1 75 67% 97 30.03 1016.9
15 16:53 E 8 10.00 Mostly Cloudy FEW038 SCT050 BKN250 90 75.9 63% 102 30.02 1016.3
15 14:53 E 9 G 21 10.00 Partly Cloudy SCT038 SCT050 SCT250 90 75.9 63% 102 30.07 1018.1
15 13:53 NE 12 10.00 Mostly Cloudy SCT035 SCT050 BKN250 91.9 77 91.9 75.9 62% 106 30.09 1018.8
15 12:53 Calm 10.00 Mostly Cloudy SCT038 BKN049 BKN250 90 73.9 59% 99 30.1 1019.2
15 11:53 SW 5 10.00 Mostly Cloudy FEW030 SCT047 BKN250 89.1 75 63% 99 30.11 1019.6
15 10:53 S 7 10.00 Partly Cloudy SCT025 SCT250 87.1 75.9 70% 98 30.12 1020.0
15 09:53 SW 7 10.00 Partly Cloudy FEW025 SCT250 84.9 77 77% 95 30.13 1020.3
15 08:53 Calm 10.00 A Few Clouds FEW130 FEW250 82.9 72 70% 88 30.13 1020.3
15 07:53 Calm 10.00 A Few Clouds FEW030 FEW250 75.9 75 75.9 73 97% 75 30.12 1019.7
15 06:53 Calm 10.00 A Few Clouds FEW030 FEW250 73 73 100% 30.11 1019.4
15 05:53 Calm 10.00 A Few Clouds FEW030 FEW250 73 73 100% 30.09 1018.7
15 04:53 Calm 10.00 Partly Cloudy SCT250 73.9 73 97% 30.09 1018.7
15 03:53 Calm 10.00 Mostly Cloudy BKN250 73.9 73 97% 30.08 1018.6
15 02:53 Calm 10.00 Overcast OVC250 73.9 73 97% 30.09 1018.9
15 01:53 Calm 10.00 Overcast OVC250 75 73.9 79 73.9 96% 73 30.1 1019.1
15 00:53 W 3 10.00 Overcast FEW150 OVC250 75 73.9 96% 73 30.12 1019.9
14 23:53 W 3 10.00 Mostly Cloudy BKN150 75 73 94% 73 30.12 1019.9
14 22:53 SW 5 10.00 Mostly Cloudy BKN150 75.9 75 97% 75 30.12 1020.0
14 21:53 SW 6 10.00 Mostly Cloudy FEW090 BKN130 75.9 75 97% 75 30.13 1020.1
14 20:53 SW 5 10.00 Mostly Cloudy SCT090 BKN130 78.1 75 90% 81 30.12 1019.8
14 19:53 SW 6 10.00 Mostly Cloudy FEW045 SCT090 BKN130 79 77 91.9 79 94% 83 30.1 1019.3 0.01
14 18:53 S 6 10.00 Mostly Cloudy FEW045 SCT090 BKN130 80.1 78.1 94% 86 30.09 1018.8
14 17:53 E 7 10.00 Mostly Cloudy FEW045 SCT090 BKN130 84.9 73.9 70% 92 30.09 1019.0
14 16:53 Calm 10.00 Light Rain FEW045 SCT090 BKN110 80.1 75 85% 85 30.1 1019.1 0.01
14 15:53 W 7 10.00 Thunderstorm FEW035CB BKN080 BKN100 82.9 73 72% 89 30.12 1019.8
14 14:53 Calm 6.00 Thunderstorm Light Rain SCT045CB BKN080 BKN120 86 75.9 72% 96 30.14 1020.4 0.01
14 13:53 E 13 10.00 Mostly Cloudy FEW045 BKN065 BKN200 91 75.9 93.9 79 61% 103 30.14 1020.5
14 12:53 Calm 10.00 Mostly Cloudy BKN045 BKN200 91.9 73 54% 101 30.15 1020.9
14 11:53 W 5 10.00 Partly Cloudy FEW040 SCT200 91 75 59% 102 30.16 1021.2
14 10:53 NW 5 10.00 Partly Cloudy FEW045 SCT200 89.1 73.9 61% 98 30.17 1021.4
14 09:53 Vrbl 3 10.00 Partly Cloudy SCT200 86 75 70% 95 30.16 1021.3
14 08:53 SW 5 10.00 Partly Cloudy FEW050 SCT200 82.9 75.9 79% 91 30.16 1021.2
14 07:53 SW 3 10.00 A Few Clouds FEW200 78.1 75.9 78.1 73.9 93% 81 30.17 1021.4
14 06:53 Calm 8.00 A Few Clouds FEW080 75 75 100% 72 30.15 1020.9
14 05:53 SW 3 10.00 A Few Clouds FEW080 75 73.9 96% 73 30.14 1020.6
14 04:53 Calm 10.00 Fair CLR 73.9 73.9 100% 30.14 1020.5
14 03:53 Calm 10.00 Fair CLR 73.9 73.9 100% 30.15 1020.7
14 02:53 Calm 10.00 Fair CLR 75 73.9 96% 73 30.16 1021.1
14 01:53 Calm 10.00 Fair CLR 75 73 79 75 94% 73 30.17 1021.6
14 00:53 Calm 10.00 Fair CLR 75 73 94% 73 30.18 1021.9
13 23:53 Calm 10.00 A Few Clouds FEW200 75.9 73.9 94% 75 30.18 1021.9
13 22:53 Calm 10.00 A Few Clouds FEW200 77 73 88% 78 30.17 1021.5
13 21:53 Calm 10.00 A Few Clouds FEW100 77 73.9 90% 78 30.16 1021.1
13 20:53 S 5 10.00 Partly Cloudy FEW050 SCT100 SCT130 79 75 88% 83 30.17 1021.6
13 19:53 S 3 10.00 Mostly Cloudy FEW050 SCT100 BKN130 78.1 75 91 75.9 90% 81 30.17 1021.6
13 18:53 S 9 10.00 Mostly Cloudy FEW030 SCT050 SCT090 BKN250 79 73.9 85% 83 30.17 1021.6
13 17:53 Calm 10.00 Mostly Cloudy SCT050 SCT090 BKN130 79 73.9 85% 83 30.14 1020.5
13 16:53 S 9 G 22 6.00 Thunderstorm Light Rain FEW030CB SCT050 SCT090 BKN130 77 71.1 82% 79 30.14 1020.4
13 15:53 SE 6 10.00 Thunderstorm SCT055CB SCT080 BKN100 89.1 73.9 61% 98 30.14 1020.7
13 14:53 E 8 10.00 Mostly Cloudy SCT055 BKN080 BKN100 90 75.9 63% 102 30.15 1020.9
13 13:53 E 13 G 20 10.00 Mostly Cloudy SCT055 BKN070 91.9 75 93.9 79 58% 103 30.17 1021.6
13 12:53 SW 3 10.00 Partly Cloudy SCT045 SCT070 93 73 52% 102 30.19 1022.1
13 11:53 SE 6 10.00 Partly Cloudy FEW045 SCT060 91 73 56% 100 30.2 1022.5
Date Time (edt) Wind (mph) Vis. (mi.) Weather Sky Cond. Air Dwpt Max. Min. Relative Humidity Wind Chill (°F) Heat Index (°F) altimeter (in) sea level (mb) 1 hr 3 hr 6 hr
6 hour
Temperature (ºF) Pressure Precipitation (in)